#timestamp,LO_Frequency,Hit,StdDev 
1514426415.6,286047002.6,N
1514426435.4,286047000.0,N
1514426455.3,286046999.7,N
1514426475.1,286047000.5,N
1514426476.0,286047000.5,N
1514426495.8,286046998.2,N
1514426515.7,286046998.8,N
1514426535.5,286046999.0,N
1514426555.3,286046999.5,N
1514426575.2,286046999.2,N
1514426595.0,286046996.7,N
1514426595.9,286046996.7,N
1514426615.8,286046997.4,N
1514426635.6,286046999.2,N
1514426655.4,286046999.2,N
1514426675.3,286046999.5,N
1514426695.1,286046999.4,N
1514426715.8,286046996.5,N
1514426735.7,286046997.8,N
1514426755.5,286046995.4,Y
1514426775.4,286046999.0,P
1514426795.2,286046999.1,P
1514426815.0,286046999.1,P
1514426815.9,286046999.1,Y
1514426835.8,286046998.4,P
1514426855.6,286046998.6,P
1514426875.5,286046999.1,P
1514426895.3,286046998.6,Y
1514426915.1,286047000.3,P
1514426935.9,286046998.6,N
1514426955.7,286046998.2,N
1514426975.6,286047001.1,N
1514426995.4,286047000.4,N
1514427015.2,286047000.9,N
1514427035.1,286047002.7,N
1514427036.0,286047002.7,N
1514427055.8,286047002.5,N
1514427075.7,286047002.5,N
1514427095.5,286047003.7,N
1514427115.3,286047003.9,N
1514427135.2,286047002.5,N
1514427155.0,286047002.3,N
1514427155.9,286047002.3,N
1514427175.8,286047002.0,N
1514427195.6,286047002.3,N
1514427215.4,286047002.4,N
1514427235.3,286047004.4,N
1514427255.1,286047003.5,N
1514427275.8,286047004.4,N
1514427295.7,286047001.5,N
1514427315.5,286047001.9,N
1514427335.4,286047001.6,N
1514427355.2,286047001.6,N
1514427375.0,286047001.7,N
1514427375.9,286047001.7,N
1514427395.8,286047003.7,N
1514427415.6,286047001.3,N
1514427435.5,286047001.7,N
1514427455.3,286047004.1,N
1514427475.1,286047003.0,N
1514427495.9,286047001.3,N
1514427515.7,286047004.2,Y
1514427535.6,286047000.1,P
1514427555.4,286047000.8,N
1514427575.2,286047000.6,N
1514427595.1,286047001.1,N
1514427596.0,286047001.1,N
1514427615.8,286047000.9,N
1514427635.6,286047000.2,N
1514427655.5,286047001.9,N
1514427675.3,286047004.0,Y
1514427695.2,286047001.3,P
1514427715.9,286047002.0,P
1514427735.7,286047002.5,P
1514427755.6,286047000.1,N
1514427775.4,286047002.4,N
1514427795.2,286046999.7,N
1514427815.1,286047002.1,N
1514427816.0,286047002.1,N
1514427835.8,286047000.0,N
1514427855.7,286047002.7,N
1514427875.5,286047002.6,N
1514427895.4,286047002.2,N
1514427915.2,286046999.8,N
1514427935.0,286047002.3,N
1514427935.9,286047002.3,N
1514427955.8,286047004.2,Y
1514427975.6,286047000.1,P
1514427995.5,286047000.8,N
1514428015.3,286046998.2,P
1514428035.2,286046998.7,N
1514428055.9,286047001.1,N
1514428075.7,286046998.1,N
1514428095.6,286047001.2,N
1514428115.4,286046998.9,N
1514428135.3,286046998.6,N
1514428155.1,286046998.8,N
1514428156.0,286046998.8,N
1514428175.8,286046998.1,N
1514428195.7,286047000.7,N
1514428215.5,286047000.6,N
1514428235.4,286046998.5,N
1514428255.2,286047000.9,N
1514428275.0,286047000.5,N
1514428275.9,286047000.5,N
1514428295.8,286046998.1,N
1514428315.6,286046998.4,N
1514428335.5,286046999.3,N
1514428355.3,286046999.3,N
1514428375.1,286046998.3,N
1514428395.9,286046998.1,N
1514428415.7,286047001.6,N
1514428435.5,286047001.7,N
1514428455.4,286047000.4,N
1514428475.2,286046998.2,N
1514428495.1,286047000.8,N
1514428496.0,286047000.8,N
1514428515.8,286047000.2,N
1514428535.6,286047000.1,N
1514428555.5,286046999.9,N
1514428575.3,286047002.4,N
1514428595.2,286047002.2,N
1514428615.9,286047002.4,N
1514428635.7,286046999.8,N
1514428655.6,286047000.3,N
1514428675.4,286047000.3,N
1514428695.2,286046998.5,N
1514428715.1,286046998.8,N
1514428716.0,286046998.8,N
1514428735.8,286046998.8,N
1514428755.7,286047000.9,N
1514428775.5,286047000.4,N
1514428795.3,286047000.8,N
1514428815.2,286047001.1,N
1514428835.0,286047001.0,N
1514428835.9,286047001.0,N
1514428855.7,286047000.5,N
1514428875.6,286047000.0,N
1514428895.4,286046999.7,N
1514428915.3,286046999.8,N
1514428935.1,286047000.0,N
1514428936.0,286047000.0,N
1514428955.8,286047002.2,N
1514428975.7,286046999.7,N
1514428995.5,286046999.9,N
1514429015.3,286047000.1,N
1514429035.2,286047002.7,N
1514429055.0,286047000.4,N
1514429055.9,286047000.4,N
1514429075.8,286047001.5,N
1514429095.6,286047004.4,Y
1514429115.4,286047002.5,P
1514429135.3,286047002.4,N
1514429155.1,286047000.4,N
1514429175.9,286046998.3,N
1514429195.7,286046998.3,N
1514429215.5,286047001.1,N
1514429235.4,286046998.7,N
1514429255.2,286046998.4,N
1514429275.0,286046998.6,N
1514429275.9,286046998.6,N
1514429295.8,286046998.9,N
1514429315.6,286046997.0,N
1514429335.5,286046999.6,N
1514429355.3,286046999.5,N
1514429375.1,286046999.0,N
1514429395.9,286046999.4,N
1514429415.7,286046998.9,N
1514429435.5,286046998.7,N
1514429455.4,286046999.0,N
1514429475.2,286046998.6,N
1514429495.1,286046998.1,N
1514429496.0,286046998.1,N
1514429515.8,286046998.7,N
1514429535.6,286046998.3,N
1514429555.5,286047001.2,N
1514429575.3,286046998.6,N
1514429595.1,286046999.9,N
1514429615.9,286047000.8,N
1514429635.7,286047000.9,N
1514429655.6,286046998.4,N
1514429675.4,286046999.5,N
1514429695.2,286046999.4,N
1514429715.1,286046998.2,N
1514429716.0,286046998.2,N
1514429735.8,286046998.6,N
1514429755.6,286046998.8,N
1514429775.5,286046998.4,N
1514429795.3,286047001.2,N
1514429815.2,286046998.5,N
1514429835.9,286046998.3,N
1514429855.7,286046999.2,N
1514429875.6,286046998.1,N
1514429895.4,286046998.6,N
1514429915.2,286047000.5,N
1514429935.1,286047002.8,N
1514429936.0,286047002.8,N
1514429955.8,286047000.0,N
1514429975.7,286047000.5,N
1514429995.5,286047000.8,N
